Regional Weather Roundup
Issued by NWS

Home | Current Version | Previous Version | Graphics & Text | Print | Product List | Glossary Off
Versions: 1 2 3 4 5 6 7 8 9 10 11 12 13 14 15 16 17 18 19 20 21 22 23 24 25 26 27 28 29 30 31 32 33 34 35 36 37 38 39 40 41 42 43 44 45 46 47 48 49 50

000
ASUS43 KMPX 022010
RWRMN
WEATHER ROUNDUP FOR MINNESOTA
NATIONAL WEATHER SERVICE TWIN CITIES/CHANHASSEN MN
300 PM CDT TUE JUN 02 2015


NOTE: "FAIR" INDICATES FEW OR NO CLOUDS BELOW 12,000 FEET WITH NO
SIGNIFICANT WEATHER AND/OR OBSTRUCTIONS TO VISIBILITY. N/A MEANS
CURRENT SKY AND/OR WEATHER CONDITIONS ARE NOT AVAILABLE.

MNZ060>063-068>070-022100-
   Twin Cities Metro

CITY           SKY/WX    TMP DP  RH WIND       PRES   REMARKS
TWIN CITIES    CLOUDY    74  53  48 SE17      29.98F
ST PAUL        PTSUNNY   74  54  49 SE22      29.98F
CRYSTAL        PTSUNNY   75  54  47 S10G24    29.96F
BLAINE         PTSUNNY   75  55  50 S15G23    29.98F
LAKEVILLE      CLOUDY    73  54  49 S15G21    29.99F
EDEN PRAIRIE   CLOUDY    74  55  51 S16G24    29.97F
SOUTH ST PAUL  PTSUNNY   74  52  45 S13G18    29.98F
LAKE ELMO      FAIR      73  55  53 S20       30.00F
$$
MNZ001>005-007-008-013>017-022>024-027-028-022100-
   Northwest Minnesota

CITY           SKY/WX    TMP DP  RH WIND       PRES   REMARKS
BEMIDJI        CLOUDY    71  54  55 S15       29.85R
HALLOCK        LGT RAIN  63  59  88 CALM      29.82S
ROSEAU         LGT RAIN  66  57  72 S14       29.84R
WARROAD        CLOUDY    66  61  82 S7        29.84S
THIEF RVR FALL CLOUDY    66  61  82 S7        29.84S
CROOKSTON      CLOUDY    66  61  82 SW9       29.83S
FOSSTON        CLOUDY    66  61  82 CALM      29.85S
DETROIT LAKES  CLOUDY    70  55  60 S20G30    29.84R
MOORHEAD       CLOUDY    73  57  56 S23       29.80F
PARK RAPIDS    CLOUDY    73  52  47 S20G28    29.85S
MAHNOMEN       CLOUDY    68  58  71 S7        29.84F
$$
MNZ006-009>011-018-025>026-022100-
   North Central Minnesota

CITY           SKY/WX    TMP DP  RH WIND       PRES   REMARKS
BAUDETTE       LGT RAIN  61  58  90 E6        29.86F
FLAG ISLAND    CLOUDY    61  55  82 S13       29.83F
INTL FALLS     CLOUDY    60  55  83 E3        29.88F
WASKISH        CLOUDY    64  59  82 E3        29.85F
BIG FORK       CLOUDY    70  52  52 S10       29.86F
LONGVILLE      CLOUDY    72  52  49 SE16      29.88S
GRAND RAPIDS   PTSUNNY   72  48  43 S16G23    29.90F
CRANE LAKE     CLOUDY    63  50  63 CALM      29.92F
ORR            CLOUDY    68  48  49 SE3       29.87F
COOK           CLOUDY    70  48  46 SE8       29.91F
WALKER         FAIR      71  54  53 S15G25    29.85S
$$
MNZ012-019>021-037-022100-
   Northeast Minnesota

CITY           SKY/WX    TMP DP  RH WIND       PRES   REMARKS
DULUTH         MOSUNNY   73  49  42 SE15      29.96F
ELY            PTSUNNY   72  41  33 S12G21    29.93F
HIBBING        PTSUNNY   74  47  38 S10G22    29.91F
EVELETH        PTSUNNY   73  45  35 S13G25    29.93F
DULUTH HARBOR  SUNNY     50  43  76 NE7       29.98F
TWO HARBORS    MOSUNNY   72  52  49 SE5       29.96F
SILVER BAY     MOSUNNY   70  48  46 SE6       29.96F
GRAND MARAIS     N/A     47  38  71 NE5       30.02F
G MARAIS ARPRT CLOUDY    59  39  47 S8        30.03F
$$
MNZ029>031-032-039>041-046>048-054>057-064-022100-
   West Central Minnesota

CITY           SKY/WX    TMP DP  RH WIND       PRES   REMARKS
FERGUS FALLS   CLOUDY    73  55  53 S24G30    29.83F
WHEATON        PTSUNNY   77  57  50 S23G31    29.80F
MORRIS         PTSUNNY   81  55  41 S29G35    29.81S
ALEXANDRIA     CLOUDY    72  54  53 SE21G28   29.88S
ELBOW LAKE     FAIR      74  56  53 S24G32    29.83F
WADENA         CLOUDY    70  54  56 S16G22    29.88R
GLENWOOD       CLOUDY    72  55  56 SE15G24   29.87F
APPLETON       CLOUDY    81  55  41 S20G26    29.83S
BENSON         CLOUDY    79  52  38 S23G31    29.84F
ORTONVILLE     PTSUNNY   79  59  50 S17G29    29.80F
MADISON        CLOUDY    81  57  44 S24G36    29.82F
WILLMAR        FAIR      79  54  41 SE18G31   29.89F
$$
MNZ033>034-036-042>043-049>051-058-059-022100-
   Central Minnesota

CITY           SKY/WX    TMP DP  RH WIND       PRES   REMARKS
ST CLOUD       CLOUDY    72  52  49 S20G26    29.92F
SAUK CENTRE    FAIR      70  53  54 SE24G32   29.87F
PAYNESVILLE    CLOUDY    70  51  50 E20G26    29.91F
AITKIN         CLOUDY    72  52  49 SE17G23   29.90F
PINE RIVER     CLOUDY    73  55  53 SE18      29.92R
BRAINERD       CLOUDY    73  51  46 S22G30    29.90F
STAPLES        CLOUDY    72  52  49 SE15      29.89R
LONG PRAIRIE   FAIR      68  50  52 SE18G33   29.89F
LITTLE FALLS   CLOUDY    72  46  40 S14G25    29.90F
LITCHFIELD     CLOUDY    75  54  46 SE13G18   29.93F
BUFFALO        CLOUDY    71  52  50 S10G18    29.97F
MAPLE LAKE     CLOUDY    73  56  55 S7G17     29.97S
$$
MNZ037-044-045-052-053-022100-
   East Central Minnesota

CITY           SKY/WX    TMP DP  RH WIND       PRES   REMARKS
PRINCETON      PTSUNNY   75  52  43 S15G21    29.95F
MORA           PTSUNNY   70  46  43 S17G23    29.97F
CAMBRIDGE      PTSUNNY   77  57  50 SE15G22   29.94F
RUSH CITY      PTSUNNY   73  53  49 S16G22    29.98S
MOOSE LAKE     MOSUNNY   73  46  38 S14G25    29.92F
HINCKLEY       FAIR      73  54  49 S15       29.96F
CLOQUET        MOSUNNY   73  46  38 S14G22    29.94F
MCGREGOR       PTSUNNY   73  48  40 S16G22    29.92F
$$
MNZ071>073-080-081-089-090-097-098-022100-
   Southwest Minnesota

CITY           SKY/WX    TMP DP  RH WIND       PRES   REMARKS
MONTEVIDEO     PTSUNNY   79  57  47 S18G24    29.85F
GRANITE FALLS  PTSUNNY   78  55  44 SE24G31   29.87F
CANBY          CLOUDY    76  58  53 S16G28    29.85F
MARSHALL       PTSUNNY   79  57  47 S22G31    29.87F
REDWOOD FALLS  PTSUNNY   79  53  40 S20G30    29.91F
OLIVIA         PTSUNNY   73  50  43 SE18G26   29.90F
PIPESTONE      PTSUNNY   75  59  57 S23       29.89F
WINDOM         MOSUNNY   73  54  49 S16       29.95S
WORTHINGTON    PTSUNNY   75  55  50 S17G29    29.92F
JACKSON        MOSUNNY   73  54  49 SE20G25   29.97F
TRACY          PTSUNNY   78  57  48 S16G22    29.91S
SLAYTON        PTSUNNY   75  55  49 S18G30    29.92F
$$
MNZ065>067-074>077-082>085-091>093-022100-
   South Central Minnesota

CITY           SKY/WX    TMP DP  RH WIND       PRES   REMARKS
MANKATO        PTSUNNY   75  50  41 S16G28    29.96F
NEW ULM        PTSUNNY   75  52  43 S16G26    29.93F
ST JAMES       MOSUNNY   79  50  36 S21G28    29.95F
FAIRMONT       SUNNY     75  52  43 S22G28    29.97F
GLENCOE        CLOUDY    77  55  46 SE16G28   29.94F
FARIBAULT      CLOUDY    73  55  53 SE15G21   30.00F
OWATONNA       PTSUNNY   73  54  49 S16G24    30.01F
WASECA         PTSUNNY   73  52  46 SE17G23   30.01F
ALBERT LEA     FAIR      75  54  46 S12G22    30.02F
$$
MNZ078>079-086>088-094>096-022100-
   Southeast Minnesota

CITY           SKY/WX    TMP DP  RH WIND       PRES   REMARKS
ROCHESTER      CLOUDY    71  53  52 S13       30.06S
RED WING       CLOUDY    73  52  46 S9        30.02F
STANTON        CLOUDY    73  53  49 S14       29.99F
DODGE CENTER   CLOUDY    72  54  53 S15G22    30.04F
WINONA         PTSUNNY   73  54  49 S3        30.05F
AUSTIN         PTSUNNY   70  55  60 S13       30.04F
PRESTON        PTSUNNY   69  52  53 S13       30.06F
$$
ABBREVIATIONS USED IN REMARKS
   TC - TEMPERATURES IN CELSIUS
  WCI - WIND CHILL INDEX
   HX - HEAT INDEX
  VSB - VISIBILITY
$$



USA.gov is the U.S. government's official web portal to all federal, state and local government web resources and services.